TimeCDT,TemperatureF,Dew PointF,Humidity,Sea Level PressureIn,VisibilityMPH,Wind Direction,Wind SpeedMPH,Gust SpeedMPH,PrecipitationIn,Events,Conditions,WindDirDegrees,DateUTC
12:15 AM,35.6,32.0,87,29.95,10.0,NW,6.9,-,N/A,,Overcast,320,2013-10-18 05:15:00
12:36 AM,34.9,32.0,89,29.95,10.0,NW,10.4,-,N/A,,Overcast,320,2013-10-18 05:36:00
12:55 AM,33.6,31.3,91,29.96,10.0,NW,8.1,-,N/A,,Overcast,310,2013-10-18 05:55:00
1:16 AM,32.7,30.6,92,29.95,10.0,NW,6.9,-,N/A,,Mostly Cloudy,310,2013-10-18 06:16:00
1:35 AM,32.2,30.6,94,29.96,10.0,NW,6.9,-,N/A,,Scattered Clouds,310,2013-10-18 06:35:00
1:55 AM,32.2,30.2,92,29.96,10.0,WNW,5.8,-,N/A,,Clear,300,2013-10-18 06:55:00
2:16 AM,30.9,29.1,93,29.96,10.0,WNW,4.6,-,N/A,,Clear,300,2013-10-18 07:16:00
2:35 AM,30.0,28.8,95,29.96,10.0,West,6.9,-,N/A,,Clear,280,2013-10-18 07:35:00
2:55 AM,29.7,28.6,96,29.96,10.0,WNW,4.6,-,N/A,,Clear,300,2013-10-18 07:55:00
3:16 AM,30.2,29.1,96,29.96,10.0,Calm,Calm,-,N/A,,Scattered Clouds,0,2013-10-18 08:16:00
3:35 AM,29.8,28.4,94,29.96,10.0,WNW,5.8,-,N/A,,Clear,290,2013-10-18 08:35:00
3:55 AM,28.8,27.5,95,29.96,10.0,West,5.8,-,N/A,,Clear,280,2013-10-18 08:55:00
4:16 AM,28.4,27.5,96,29.96,10.0,West,6.9,-,N/A,,Clear,280,2013-10-18 09:16:00
4:35 AM,28.2,27.1,96,29.96,10.0,WNW,4.6,-,N/A,,Clear,290,2013-10-18 09:35:00
4:55 AM,28.6,27.7,96,29.96,10.0,West,3.5,-,N/A,,Clear,280,2013-10-18 09:55:00
5:16 AM,28.0,27.0,96,29.96,10.0,West,5.8,-,N/A,,Clear,260,2013-10-18 10:16:00
5:35 AM,26.4,25.2,95,29.96,10.0,West,3.5,-,N/A,,Clear,260,2013-10-18 10:35:00
5:56 AM,27.5,26.8,97,29.96,10.0,West,8.1,-,N/A,,Clear,270,2013-10-18 10:56:00
6:15 AM,28.0,27.1,96,29.96,10.0,West,6.9,-,N/A,,Clear,280,2013-10-18 11:15:00
6:35 AM,27.7,26.6,96,29.97,10.0,West,4.6,-,N/A,,Clear,280,2013-10-18 11:35:00
6:56 AM,28.4,27.5,96,29.97,10.0,West,4.6,-,N/A,,Clear,280,2013-10-18 11:56:00
7:15 AM,27.3,26.2,96,29.97,10.0,SW,3.5,-,N/A,,Clear,230,2013-10-18 12:15:00
7:35 AM,26.6,25.9,97,29.97,10.0,WSW,3.5,-,N/A,,Clear,240,2013-10-18 12:35:00
7:56 AM,26.6,26.1,98,29.97,10.0,SW,4.6,-,N/A,,Clear,230,2013-10-18 12:56:00
8:15 AM,27.3,26.8,98,29.98,10.0,WSW,4.6,-,N/A,,Clear,240,2013-10-18 13:15:00
8:35 AM,28.0,27.5,98,29.98,10.0,SW,4.6,-,N/A,,Clear,220,2013-10-18 13:35:00
8:56 AM,30.2,29.3,96,29.99,10.0,SW,3.5,-,N/A,,Clear,220,2013-10-18 13:56:00
9:15 AM,32.0,30.6,94,29.99,10.0,Calm,Calm,-,N/A,,Clear,0,2013-10-18 14:15:00
9:35 AM,33.3,31.8,94,29.99,10.0,Calm,Calm,-,N/A,,Scattered Clouds,0,2013-10-18 14:35:00
9:55 AM,34.7,32.0,90,29.99,10.0,West,4.6,-,N/A,,Scattered Clouds,270,2013-10-18 14:55:00
10:15 AM,36.0,31.8,85,29.98,10.0,West,8.1,-,N/A,,Scattered Clouds,280,2013-10-18 15:15:00
10:36 AM,36.9,32.2,83,29.98,10.0,West,5.8,-,N/A,,Clear,260,2013-10-18 15:36:00
10:55 AM,38.3,32.4,79,29.98,10.0,West,8.1,-,N/A,,Clear,280,2013-10-18 15:55:00
11:15 AM,39.6,33.1,78,29.98,10.0,West,6.9,-,N/A,,Clear,270,2013-10-18 16:15:00
11:36 AM,41.2,34.0,76,29.97,10.0,WNW,6.9,-,N/A,,Clear,290,2013-10-18 16:36:00
11:55 AM,42.4,34.5,74,29.97,10.0,WNW,4.6,-,N/A,,Clear,300,2013-10-18 16:55:00
12:15 PM,43.7,35.4,73,29.96,10.0,West,5.8,-,N/A,,Clear,270,2013-10-18 17:15:00
12:36 PM,44.8,35.1,69,29.96,10.0,West,4.6,-,N/A,,Clear,260,2013-10-18 17:36:00
12:55 PM,45.7,34.3,65,29.95,10.0,SW,9.2,-,N/A,,Clear,230,2013-10-18 17:55:00
1:15 PM,46.9,33.6,60,29.94,10.0,West,6.9,-,N/A,,Clear,280,2013-10-18 18:15:00
1:36 PM,47.3,34.0,60,29.93,10.0,West,9.2,-,N/A,,Scattered Clouds,260,2013-10-18 18:36:00
1:55 PM,47.5,34.0,59,29.92,10.0,West,10.4,17.3,N/A,,Mostly Cloudy,270,2013-10-18 18:55:00
2:15 PM,47.7,35.1,62,29.92,10.0,WNW,8.1,-,N/A,,Scattered Clouds,290,2013-10-18 19:15:00
2:35 PM,46.9,34.7,62,29.91,10.0,West,10.4,-,N/A,,Scattered Clouds,270,2013-10-18 19:35:00
2:55 PM,45.7,31.5,58,29.90,10.0,WNW,11.5,-,N/A,,Scattered Clouds,290,2013-10-18 19:55:00
3:16 PM,45.3,30.7,57,29.90,10.0,WNW,11.5,17.3,N/A,,Mostly Cloudy,290,2013-10-18 20:16:00
3:35 PM,45.0,31.1,58,29.89,10.0,WNW,10.4,-,N/A,,Scattered Clouds,300,2013-10-18 20:35:00
3:55 PM,45.1,32.5,61,29.89,10.0,WNW,8.1,-,N/A,,Scattered Clouds,290,2013-10-18 20:55:00
4:16 PM,44.2,31.8,62,29.89,10.0,West,8.1,-,N/A,,Mostly Cloudy,280,2013-10-18 21:16:00
4:35 PM,44.1,31.1,60,29.89,10.0,WNW,6.9,-,N/A,,Overcast,290,2013-10-18 21:35:00
4:55 PM,43.5,32.0,64,29.89,10.0,West,6.9,-,N/A,,Overcast,280,2013-10-18 21:55:00
5:16 PM,43.5,32.5,65,29.88,10.0,West,6.9,-,N/A,,Overcast,270,2013-10-18 22:16:00
5:35 PM,43.7,33.6,68,29.88,10.0,West,8.1,-,N/A,,Overcast,260,2013-10-18 22:35:00
5:55 PM,42.3,32.9,69,29.88,10.0,West,8.1,-,N/A,,Overcast,270,2013-10-18 22:55:00
6:16 PM,40.8,33.1,74,29.88,10.0,West,6.9,-,N/A,,Overcast,270,2013-10-18 23:16:00
6:35 PM,38.8,32.5,78,29.87,10.0,West,5.8,-,N/A,,Mostly Cloudy,260,2013-10-18 23:35:00
6:55 PM,37.0,32.2,83,29.87,10.0,West,5.8,-,N/A,,Scattered Clouds,260,2013-10-18 23:55:00
7:16 PM,37.2,32.9,84,29.87,10.0,WSW,4.6,-,N/A,,Mostly Cloudy,240,2013-10-19 00:16:00
7:35 PM,37.0,33.4,87,29.87,10.0,WSW,5.8,-,N/A,,Overcast,240,2013-10-19 00:35:00
7:56 PM,38.3,34.5,86,29.86,10.0,WSW,4.6,-,N/A,,Overcast,240,2013-10-19 00:56:00
8:15 PM,38.3,34.5,86,29.86,10.0,SW,4.6,-,N/A,,Overcast,230,2013-10-19 01:15:00
8:35 PM,37.4,34.2,88,29.85,10.0,WSW,5.8,-,N/A,,Overcast,250,2013-10-19 01:35:00
8:56 PM,36.5,33.6,89,29.85,10.0,WSW,4.6,-,N/A,,Mostly Cloudy,250,2013-10-19 01:56:00
9:15 PM,35.4,32.9,91,29.84,10.0,WSW,6.9,-,N/A,,Scattered Clouds,240,2013-10-19 02:15:00
9:35 PM,34.2,32.5,94,29.84,10.0,SW,5.8,-,N/A,,Mostly Cloudy,230,2013-10-19 02:35:00
9:56 PM,33.8,32.2,94,29.83,10.0,SW,4.6,-,N/A,,Scattered Clouds,230,2013-10-19 02:56:00
10:16 PM,34.3,32.7,94,29.83,10.0,SW,5.8,-,N/A,,Scattered Clouds,220,2013-10-19 03:16:00
10:35 PM,35.6,33.4,92,29.82,10.0,SW,5.8,-,N/A,,Overcast,220,2013-10-19 03:35:00
10:56 PM,36.1,33.8,91,29.82,10.0,SW,5.8,-,N/A,,Overcast,220,2013-10-19 03:56:00
11:16 PM,36.0,34.0,93,29.81,10.0,SW,4.6,-,N/A,,Overcast,220,2013-10-19 04:16:00
11:35 PM,36.1,34.2,93,29.81,10.0,SW,5.8,-,N/A,,Mostly Cloudy,230,2013-10-19 04:35:00
11:55 PM,36.5,34.3,92,29.80,10.0,WSW,6.9,-,N/A,,Overcast,240,2013-10-19 04:55:00